﻿測定場所 (Monitoring sites),日付 (Measurement date),時間 (Measurement time),線量率 最大値 (max) μGy/h,線量率 最小値 (min) μGy/h,線量率 平均値 (average) μGy/h,
新宿 (Shinjuku),2012-04-15,23:01～24:00,0.0521,0.0449,0.0489,
新宿 (Shinjuku),2012-04-15,22:01～23:00,0.0530,0.0457,0.0485,
新宿 (Shinjuku),2012-04-15,21:01～22:00,0.0524,0.0452,0.0486,
新宿 (Shinjuku),2012-04-15,20:01～21:00,0.0530,0.0458,0.0490,
新宿 (Shinjuku),2012-04-15,19:01～20:00,0.0522,0.0450,0.0490,
新宿 (Shinjuku),2012-04-15,18:01～19:00,0.0524,0.0459,0.0490,
新宿 (Shinjuku),2012-04-15,17:01～18:00,0.0530,0.0457,0.0491,
新宿 (Shinjuku),2012-04-15,16:01～17:00,0.0527,0.0465,0.0496,
新宿 (Shinjuku),2012-04-15,15:01～16:00,0.0527,0.0450,0.0492,
新宿 (Shinjuku),2012-04-15,14:01～15:00,0.0526,0.0453,0.0493,
新宿 (Shinjuku),2012-04-15,13:01～14:00,0.0530,0.0456,0.0499,
新宿 (Shinjuku),2012-04-15,12:01～13:00,0.0528,0.0464,0.0499,
新宿 (Shinjuku),2012-04-15,11:01～12:00,0.0541,0.0465,0.0502,
新宿 (Shinjuku),2012-04-15,10:01～11:00,0.0539,0.0460,0.0501,
新宿 (Shinjuku),2012-04-15,09:01～10:00,0.0536,0.0471,0.0503,
新宿 (Shinjuku),2012-04-15,08:01～09:00,0.0527,0.0464,0.0495,
新宿 (Shinjuku),2012-04-15,07:01～08:00,0.0531,0.0472,0.0498,
新宿 (Shinjuku),2012-04-15,06:01～07:00,0.0514,0.0462,0.0493,
新宿 (Shinjuku),2012-04-15,05:01～06:00,0.0534,0.0462,0.0492,
新宿 (Shinjuku),2012-04-15,04:01～05:00,0.0525,0.0464,0.0490,
新宿 (Shinjuku),2012-04-15,03:01～04:00,0.0533,0.0448,0.0489,
新宿 (Shinjuku),2012-04-15,02:01～03:00,0.0526,0.0446,0.0491,
新宿 (Shinjuku),2012-04-15,01:01～02:00,0.0518,0.0454,0.0492,
新宿 (Shinjuku),2012-04-15,00:01～01:00,0.0519,0.0455,0.0489,
新宿 (Shinjuku),2012-04-14,23:01～24:00,0.0526,0.0465,0.0495,
新宿 (Shinjuku),2012-04-14,22:01～23:00,0.0550,0.0462,0.0501,
新宿 (Shinjuku),2012-04-14,21:01～22:00,0.0541,0.0476,0.0505,
新宿 (Shinjuku),2012-04-14,20:01～21:00,0.0544,0.0479,0.0512,
新宿 (Shinjuku),2012-04-14,19:01～20:00,0.0543,0.0480,0.0507,
新宿 (Shinjuku),2012-04-14,18:01～19:00,0.0576,0.0489,0.0522,
新宿 (Shinjuku),2012-04-14,17:01～18:00,0.0574,0.0508,0.0540,
新宿 (Shinjuku),2012-04-14,16:01～17:00,0.0591,0.0511,0.0549,
新宿 (Shinjuku),2012-04-14,15:01～16:00,0.0590,0.0518,0.0562,
新宿 (Shinjuku),2012-04-14,14:01～15:00,0.0599,0.0532,0.0561,
新宿 (Shinjuku),2012-04-14,13:01～14:00,0.0648,0.0553,0.0595,
新宿 (Shinjuku),2012-04-14,12:01～13:00,0.0635,0.0550,0.0594,
新宿 (Shinjuku),2012-04-14,11:01～12:00,0.0622,0.0527,0.0574,
新宿 (Shinjuku),2012-04-14,10:01～11:00,0.0633,0.0550,0.0594,
新宿 (Shinjuku),2012-04-14,09:01～10:00,0.0639,0.0562,0.0601,
新宿 (Shinjuku),2012-04-14,08:01～09:00,0.0637,0.0561,0.0598,
新宿 (Shinjuku),2012-04-14,07:01～08:00,0.0602,0.0547,0.0574,
新宿 (Shinjuku),2012-04-14,06:01～07:00,0.0605,0.0531,0.0571,
新宿 (Shinjuku),2012-04-14,05:01～06:00,0.0614,0.0511,0.0557,
新宿 (Shinjuku),2012-04-14,04:01～05:00,0.0572,0.0500,0.0533,
新宿 (Shinjuku),2012-04-14,03:01～04:00,0.0576,0.0522,0.0547,
新宿 (Shinjuku),2012-04-14,02:01～03:00,0.0587,0.0519,0.0561,
新宿 (Shinjuku),2012-04-14,01:01～02:00,0.0576,0.0491,0.0533,
新宿 (Shinjuku),2012-04-14,00:01～01:00,0.0551,0.0486,0.0520,
新宿 (Shinjuku),2012-04-13,23:01～24:00,0.0563,0.0489,0.0526,
新宿 (Shinjuku),2012-04-13,22:01～23:00,0.0573,0.0488,0.0531,
新宿 (Shinjuku),2012-04-13,21:01～22:00,0.0600,0.0510,0.0550,
新宿 (Shinjuku),2012-04-13,20:01～21:00,0.0587,0.0488,0.0541,
新宿 (Shinjuku),2012-04-13,19:01～20:00,0.0542,0.0471,0.0508,
新宿 (Shinjuku),2012-04-13,18:01～19:00,0.0533,0.0466,0.0494,
新宿 (Shinjuku),2012-04-13,17:01～18:00,0.0537,0.0466,0.0502,
新宿 (Shinjuku),2012-04-13,16:01～17:00,0.0528,0.0457,0.0494,
新宿 (Shinjuku),2012-04-13,15:01～16:00,0.0530,0.0464,0.0495,
新宿 (Shinjuku),2012-04-13,14:01～15:00,0.0541,0.0469,0.0499,
新宿 (Shinjuku),2012-04-13,13:01～14:00,0.0530,0.0465,0.0498,
新宿 (Shinjuku),2012-04-13,12:01～13:00,0.0539,0.0473,0.0501,
新宿 (Shinjuku),2012-04-13,11:01～12:00,0.0540,0.0464,0.0500,
新宿 (Shinjuku),2012-04-13,10:01～11:00,0.0542,0.0465,0.0500,
新宿 (Shinjuku),2012-04-13,09:01～10:00,0.0542,0.0470,0.0503,
新宿 (Shinjuku),2012-04-13,08:01～09:00,0.0525,0.0462,0.0497,
新宿 (Shinjuku),2012-04-13,07:01～08:00,0.0530,0.0473,0.0497,
新宿 (Shinjuku),2012-04-13,06:01～07:00,0.0543,0.0467,0.0496,
新宿 (Shinjuku),2012-04-13,05:01～06:00,0.0532,0.0456,0.0492,
新宿 (Shinjuku),2012-04-13,04:01～05:00,0.0531,0.0466,0.0494,
新宿 (Shinjuku),2012-04-13,03:01～04:00,0.0523,0.0474,0.0494,
新宿 (Shinjuku),2012-04-13,02:01～03:00,0.0523,0.0461,0.0497,
新宿 (Shinjuku),2012-04-13,01:01～02:00,0.0518,0.0471,0.0496,
新宿 (Shinjuku),2012-04-13,00:01～01:00,0.0540,0.0456,0.0496,
新宿 (Shinjuku),2012-04-12,23:01～24:00,0.0532,0.0468,0.0497,
新宿 (Shinjuku),2012-04-12,22:01～23:00,0.0539,0.0461,0.0498,
新宿 (Shinjuku),2012-04-12,21:01～22:00,0.0528,0.0457,0.0498,
新宿 (Shinjuku),2012-04-12,20:01～21:00,0.0545,0.0466,0.0497,
新宿 (Shinjuku),2012-04-12,19:01～20:00,0.0536,0.0451,0.0495,
新宿 (Shinjuku),2012-04-12,18:01～19:00,0.0543,0.0462,0.0496,
新宿 (Shinjuku),2012-04-12,17:01～18:00,0.0533,0.0457,0.0496,
新宿 (Shinjuku),2012-04-12,16:01～17:00,0.0538,0.0463,0.0494,
新宿 (Shinjuku),2012-04-12,15:01～16:00,0.0539,0.0463,0.0497,
新宿 (Shinjuku),2012-04-12,14:01～15:00,0.0530,0.0454,0.0496,
新宿 (Shinjuku),2012-04-12,13:01～14:00,0.0529,0.0464,0.0503,
新宿 (Shinjuku),2012-04-12,12:01～13:00,0.0524,0.0461,0.0499,
新宿 (Shinjuku),2012-04-12,11:01～12:00,0.0543,0.0450,0.0493,
新宿 (Shinjuku),2012-04-12,10:01～11:00,0.0531,0.0469,0.0502,
新宿 (Shinjuku),2012-04-12,09:01～10:00,0.0535,0.0466,0.0500,
新宿 (Shinjuku),2012-04-12,08:01～09:00,0.0527,0.0469,0.0498,
新宿 (Shinjuku),2012-04-12,07:01～08:00,0.0538,0.0456,0.0497,
新宿 (Shinjuku),2012-04-12,06:01～07:00,0.0537,0.0460,0.0494,
新宿 (Shinjuku),2012-04-12,05:01～06:00,0.0533,0.0457,0.0495,
新宿 (Shinjuku),2012-04-12,04:01～05:00,0.0526,0.0457,0.0499,
新宿 (Shinjuku),2012-04-12,03:01～04:00,0.0528,0.0462,0.0498,
新宿 (Shinjuku),2012-04-12,02:01～03:00,0.0534,0.0465,0.0494,
新宿 (Shinjuku),2012-04-12,01:01～02:00,0.0522,0.0454,0.0492,
新宿 (Shinjuku),2012-04-12,00:01～01:00,0.0544,0.0470,0.0502,
新宿 (Shinjuku),2012-04-11,23:01～24:00,0.0555,0.0459,0.0516,
新宿 (Shinjuku),2012-04-11,22:01～23:00,0.0564,0.0496,0.0529,
新宿 (Shinjuku),2012-04-11,21:01～22:00,0.0571,0.0485,0.0523,
新宿 (Shinjuku),2012-04-11,20:01～21:00,0.0548,0.0484,0.0512,
新宿 (Shinjuku),2012-04-11,19:01～20:00,0.0533,0.0465,0.0497,
新宿 (Shinjuku),2012-04-11,18:01～19:00,0.0526,0.0457,0.0495,
新宿 (Shinjuku),2012-04-11,17:01～18:00,0.0542,0.0454,0.0490,
新宿 (Shinjuku),2012-04-11,16:01～17:00,0.0526,0.0450,0.0495,
新宿 (Shinjuku),2012-04-11,15:01～16:00,0.0539,0.0467,0.0499,
新宿 (Shinjuku),2012-04-11,14:01～15:00,0.0532,0.0460,0.0494,
新宿 (Shinjuku),2012-04-11,13:01～14:00,0.0546,0.0460,0.0502,
新宿 (Shinjuku),2012-04-11,12:01～13:00,0.0534,0.0468,0.0503,
新宿 (Shinjuku),2012-04-11,11:01～12:00,0.0542,0.0468,0.0514,
新宿 (Shinjuku),2012-04-11,10:01～11:00,0.0542,0.0476,0.0511,
新宿 (Shinjuku),2012-04-11,09:01～10:00,0.0545,0.0463,0.0502,
新宿 (Shinjuku),2012-04-11,08:01～09:00,0.0526,0.0451,0.0496,
新宿 (Shinjuku),2012-04-11,07:01～08:00,0.0560,0.0473,0.0500,
新宿 (Shinjuku),2012-04-11,06:01～07:00,0.0540,0.0469,0.0509,
新宿 (Shinjuku),2012-04-11,05:01～06:00,0.0548,0.0484,0.0513,
新宿 (Shinjuku),2012-04-11,04:01～05:00,0.0538,0.0466,0.0500,
新宿 (Shinjuku),2012-04-11,03:01～04:00,0.0520,0.0462,0.0491,
新宿 (Shinjuku),2012-04-11,02:01～03:00,0.0523,0.0463,0.0494,
新宿 (Shinjuku),2012-04-11,01:01～02:00,0.0522,0.0458,0.0495,
新宿 (Shinjuku),2012-04-11,00:01～01:00,0.0534,0.0455,0.0494,
新宿 (Shinjuku),2012-04-10,22:01～23:00,0.0540,0.0456,0.0497,
新宿 (Shinjuku),2012-04-10,21:01～22:00,0.0527,0.0468,0.0496,
新宿 (Shinjuku),2012-04-10,20:01～21:00,0.0526,0.0450,0.0494,
新宿 (Shinjuku),2012-04-10,19:01～20:00,0.0528,0.0456,0.0497,
新宿 (Shinjuku),2012-04-10,18:01～19:00,0.0553,0.0460,0.0494,
新宿 (Shinjuku),2012-04-10,17:01～18:00,0.0530,0.0473,0.0496,
新宿 (Shinjuku),2012-04-10,16:01～17:00,0.0531,0.0456,0.0496,
新宿 (Shinjuku),2012-04-10,15:01～16:00,0.0526,0.0466,0.0497,
新宿 (Shinjuku),2012-04-10,14:01～15:00,0.0526,0.0464,0.0494,
新宿 (Shinjuku),2012-04-10,13:01～14:00,0.0531,0.0463,0.0497,
新宿 (Shinjuku),2012-04-10,12:01～13:00,0.0528,0.0451,0.0500,
新宿 (Shinjuku),2012-04-10,11:01～12:00,0.0538,0.0457,0.0498,
新宿 (Shinjuku),2012-04-10,10:01～11:00,0.0553,0.0464,0.0503,
新宿 (Shinjuku),2012-04-10,09:01～10:00,0.0534,0.0469,0.0501,
新宿 (Shinjuku),2012-04-10,08:01～09:00,0.0531,0.0450,0.0502,
新宿 (Shinjuku),2012-04-10,07:01～08:00,0.0544,0.0467,0.0502,
新宿 (Shinjuku),2012-04-10,06:01～07:00,0.0531,0.0460,0.0498,
新宿 (Shinjuku),2012-04-10,05:01～06:00,0.0536,0.0466,0.0496,
新宿 (Shinjuku),2012-04-10,04:01～05:00,0.0528,0.0444,0.0493,
新宿 (Shinjuku),2012-04-10,03:01～04:00,0.0532,0.0455,0.0498,
新宿 (Shinjuku),2012-04-10,02:01～03:00,0.0532,0.0470,0.0495,
新宿 (Shinjuku),2012-04-10,01:01～02:00,0.0526,0.0450,0.0491,
新宿 (Shinjuku),2012-04-10,00:01～01:00,0.0537,0.0469,0.0501,
新宿 (Shinjuku),2012-04-09,23:01～24:00,0.0529,0.0459,0.0497,
新宿 (Shinjuku),2012-04-09,22:01～23:00,0.0519,0.0463,0.0492,
新宿 (Shinjuku),2012-04-09,21:01～22:00,0.0524,0.0456,0.0492,
新宿 (Shinjuku),2012-04-09,20:01～21:00,0.0526,0.0461,0.0497,
新宿 (Shinjuku),2012-04-09,19:01～20:00,0.0525,0.0458,0.0496,
新宿 (Shinjuku),2012-04-09,18:01～19:00,0.0544,0.0459,0.0500,
新宿 (Shinjuku),2012-04-09,17:01～18:00,0.0527,0.0467,0.0499,
新宿 (Shinjuku),2012-04-09,16:01～17:00,0.0528,0.0458,0.0496,
新宿 (Shinjuku),2012-04-09,15:01～16:00,0.0535,0.0454,0.0496,
新宿 (Shinjuku),2012-04-09,14:01～15:00,0.0534,0.0472,0.0499,
新宿 (Shinjuku),2012-04-09,13:01～14:00,0.0544,0.0463,0.0502,
新宿 (Shinjuku),2012-04-09,12:01～13:00,0.0526,0.0473,0.0498,
新宿 (Shinjuku),2012-04-09,11:01～12:00,0.0533,0.0476,0.0502,
新宿 (Shinjuku),2012-04-09,10:01～11:00,0.0537,0.0455,0.0502,
新宿 (Shinjuku),2012-04-09,09:01～10:00,0.0544,0.0464,0.0508,
新宿 (Shinjuku),2012-04-09,08:01～09:00,0.0532,0.0471,0.0506,
新宿 (Shinjuku),2012-04-09,07:01～08:00,0.0539,0.0468,0.0504,
新宿 (Shinjuku),2012-04-09,06:01～07:00,0.0543,0.0469,0.0500,
新宿 (Shinjuku),2012-04-09,05:01～06:00,0.0536,0.0467,0.0495,
新宿 (Shinjuku),2012-04-09,04:01～05:00,0.0528,0.0463,0.0497,
新宿 (Shinjuku),2012-04-09,03:01～04:00,0.0540,0.0464,0.0496,
新宿 (Shinjuku),2012-04-09,02:01～03:00,0.0523,0.0463,0.0496,
新宿 (Shinjuku),2012-04-09,01:01～02:00,0.0521,0.0447,0.0486,
新宿 (Shinjuku),2012-04-09,00:01～01:00,0.0514,0.0445,0.0490,
